Weather History for Stuart, FL

Change the Weather History Date:

Tuesday, July 2, 2013

  Actual Average Record
Temperature  
Mean Temperature 82 °F -  
Max Temperature 87 °F 89 °F 95 °F (1988)
Min Temperature 77 °F 73 °F 66 °F (1974)
Cooling Degree Days 17    
Growing Degree Days 32 (Base 50)    
Moisture  
Dew Point 74 °F    
Average Humidity 84    
Maximum Humidity 94    
Minimum Humidity 66    
Precipitation  
Precipitation 0.00 in - - ()
Sea Level Pressure  
Sea Level Pressure 30.07 in    
Wind  
Wind Speed 3 mph (SSE)    
Max Wind Speed 18 mph    
Max Gust Speed 25 mph    
Visibility 9 miles    
Events Rain , Thunderstorm    
Averages and records for this station are not official NWS values.
T = Trace of Precipitation, MM = Missing Value Source: NWS Daily Summary

Daily Weather History Graph

Daily Weather History Graph

Search for Another Location

Airport:

Trip Planner

Search our weather history database for the weather conditions in past years. The results will help you decide how hot, cold, wet, or windy it might be!

Date:

Astronomy

Jul. 02, 2013 Rise Set
Actual Time 6:30 AM EDT 8:19 PM EDT
Civil Twilight 6:04 AM EDT 8:45 PM EDT
Nautical Twilight 5:32 AM EDT 9:17 PM EDT
Astronomical Twilight 4:58 AM EDT 9:51 PM EDT
Moon 2:17 AM EDT (7/2) 3:43 PM EDT (7/2)
Length of Visible Light 14h 41m
Length of Day
13h 49m
Waning Crescent, 26% of the Moon is Illuminated
Jul 2
Waning Crescent
Jul 8
New
Jul 15
First Quarter
Jul 22
Full
Jul 29
Last Quarter

Hourly Weather History & Observations

Time (EDT) Temp. Heat Index Dew Point Humidity Pressure Visibility Wind Dir Wind Speed Gust Speed Precip Events Conditions
12:15 AM 77.0 °F - 71.6 °F 83% 30.06 in 10.0 mi Calm Calm - N/A Thunderstorm Clear
12:35 AM 77.0 °F - 71.6 °F 83% 30.06 in 10.0 mi Calm Calm - N/A Thunderstorm Clear
12:55 AM 77.0 °F - 71.6 °F 83% 30.06 in 10.0 mi Calm Calm - N/A Thunderstorm Clear
1:15 AM 77.0 °F - 71.6 °F 83% 30.05 in 10.0 mi Calm Calm - N/A Thunderstorm Clear
1:35 AM 77.0 °F - 71.6 °F 83% 30.05 in 10.0 mi Calm Calm - N/A Thunderstorm Clear
1:55 AM 77.0 °F - 71.6 °F 83% 30.04 in 10.0 mi SE 3.5 mph - N/A   Clear
2:15 AM 77.0 °F - 73.4 °F 89% 30.03 in 10.0 mi SSE 3.5 mph - N/A   Clear
2:35 AM 77.0 °F - 73.4 °F 89% 30.03 in 10.0 mi SSE 3.5 mph - N/A   Clear
2:55 AM 77.0 °F - 73.4 °F 89% 30.02 in 7.0 mi ESE 3.5 mph - N/A   Clear
3:15 AM 77.0 °F - 73.4 °F 89% 30.02 in 10.0 mi SE 3.5 mph - N/A   Clear
3:35 AM 77.0 °F - 73.4 °F 89% 30.01 in 10.0 mi Calm Calm - N/A   Clear
3:55 AM 78.8 °F - 73.4 °F 83% 30.01 in 10.0 mi SE 4.6 mph - N/A   Clear
4:15 AM 78.8 °F - 73.4 °F 83% 30.01 in 10.0 mi SE 4.6 mph - N/A   Clear
4:35 AM 78.8 °F - 73.4 °F 83% 30.01 in 10.0 mi SSE 4.6 mph - N/A   Clear
4:55 AM 78.8 °F - 77.0 °F 94% 30.01 in 10.0 mi SE 5.8 mph - N/A   Clear
5:15 AM 80.6 °F 87.1 °F 77.0 °F 89% 30.02 in 10.0 mi SE 5.8 mph - N/A   Clear
5:35 AM 80.6 °F 87.1 °F 77.0 °F 89% 30.02 in 10.0 mi SE 4.6 mph - N/A   Clear
5:55 AM 80.6 °F 87.1 °F 77.0 °F 89% 30.02 in 10.0 mi SE 6.9 mph - N/A   Clear
6:15 AM 80.6 °F 87.1 °F 77.0 °F 89% 30.03 in 10.0 mi SSE 6.9 mph - N/A   Scattered Clouds
6:47 AM 80.6 °F 86.2 °F 75.2 °F 84% 30.04 in 6.0 mi South 6.9 mph - N/A   Mostly Cloudy
7:47 AM 82.4 °F 89.5 °F 75.2 °F 79% 30.06 in 6.0 mi South 4.6 mph - N/A   Mostly Cloudy
8:47 AM 84.2 °F 94.1 °F 77.0 °F 79% 30.07 in 6.0 mi SE 9.2 mph - N/A   Mostly Cloudy
9:47 AM 84.2 °F 94.1 °F 77.0 °F 79% 30.08 in 6.0 mi South 15.0 mph - N/A Rain Light Rain
10:47 AM 80.6 °F 86.2 °F 75.2 °F 84% 30.08 in 7.0 mi South 9.2 mph - N/A Rain Light Rain
11:47 AM 87.8 °F 97.6 °F 75.2 °F 66% 30.07 in 7.0 mi SSE 13.8 mph 20.7 mph N/A Thunderstorm Mostly Cloudy
12:47 PM 87.8 °F 97.6 °F 75.2 °F 66% 30.08 in 7.0 mi SSE 18.4 mph 25.3 mph N/A Thunderstorm Mostly Cloudy
1:47 PM 84.2 °F 94.1 °F 77.0 °F 79% 30.09 in 7.0 mi SSE 10.4 mph 18.4 mph N/A Thunderstorm Mostly Cloudy
2:47 PM 86.0 °F 95.1 °F 75.2 °F 70% 30.08 in 7.0 mi SE 10.4 mph - N/A Thunderstorm Mostly Cloudy
3:47 PM 82.4 °F 89.5 °F 75.2 °F 79% 30.07 in 7.0 mi North - - N/A Thunderstorm Mostly Cloudy
4:47 PM 80.6 °F 87.1 °F 77.0 °F 89% 30.07 in 7.0 mi Variable 5.8 mph - N/A   Mostly Cloudy
5:47 PM 80.6 °F 86.2 °F 75.2 °F 84% 30.07 in 7.0 mi Variable 5.8 mph - N/A   Mostly Cloudy
6:47 PM 80.6 °F 86.2 °F 75.2 °F 84% 30.09 in 7.0 mi Calm Calm - N/A   Mostly Cloudy
8:15 PM 78.8 °F - 75.2 °F 89% 30.11 in 10.0 mi Calm Calm - N/A Thunderstorm Clear
8:35 PM 78.8 °F - 75.2 °F 89% 30.12 in 10.0 mi NNW 3.5 mph - N/A Thunderstorm Clear
8:55 PM 78.8 °F - 75.2 °F 89% 30.12 in 10.0 mi NW 3.5 mph - N/A   Clear
9:15 PM 78.8 °F - 75.2 °F 89% 30.12 in 10.0 mi WSW 6.9 mph - N/A   Scattered Clouds
9:35 PM 78.8 °F - 73.4 °F 83% 30.12 in 10.0 mi NW 3.5 mph - N/A   Scattered Clouds
9:55 PM 78.8 °F - 75.2 °F 89% 30.13 in 10.0 mi Calm Calm - N/A   Clear
10:15 PM 78.8 °F - 73.4 °F 83% 30.13 in 10.0 mi Calm Calm - N/A   Clear
10:35 PM 77.0 °F - 73.4 °F 89% 30.14 in 10.0 mi Calm Calm - N/A   Clear
10:55 PM 77.0 °F - 73.4 °F 89% 30.13 in 10.0 mi Calm Calm - N/A   Clear
11:15 PM 77.0 °F - 71.6 °F 83% 30.12 in 10.0 mi Calm Calm - N/A   Clear
11:35 PM 77.0 °F - 71.6 °F 83% 30.12 in 10.0 mi Calm Calm - N/A   Clear
11:55 PM 77.0 °F - 71.6 °F 83% 30.12 in 10.0 mi Calm Calm - N/A   Clear